Orbital Elements at Epoch 2459200.5 (2020-Dec-17.0) TDB
Reference: JPL 16 (heliocentric ecliptic J2000)
Element | Value | Uncertainty (1-sigma) | Units |
e | .1956331095761841 | 6.261e-08 | |
a | 3.150195138904537 | 2.5951e-08 | au |
q | 2.533912668108863 | 1.9516e-07 | au |
i | 6.968805122989965 | 5.6367e-06 | deg |
node | 332.7413080047367 | 4.4085e-05 | deg |
peri | 41.84783922719846 | 4.5535e-05 | deg |
M | 221.5271530280316 | 1.3486e-05 | deg |
tp | 2459986.037157561186 (2023-Feb-10.53715756) | 8.2456e-05 | TDB |
period | 2042.229815490643 5.59 | 2.5236e-05 6.909e-08 | d yr |
n | .1762779082301815 | 2.1783e-09 | deg/d |
Q | 3.76647760970021 | 3.1028e-08 | au |
|
| | Orbit Determination Parameters
Additional Information
|